Location: Amsterdam
(30.7274°N, 84.4357°W)
Time: 11:46:56
(UTC+00:00)

Tiros 1 - Pass Details

Date: 16 February 2026
Orbit: 618 x 650 km, 48.4° (Epoch: 16 March)

Event Time Altitude Azimuth Distance (km) Brightness Sun altitude
Rises 22:41:01 0° 293° (WNW) 2,882 11.3 8.5°
Reaches altitude 10° 22:43:55 10° 274° (W) 1,976 11.2 8.0°
Maximum altitude 22:47:00 18° 231° (SW) 1,519 10.6 7.3°
Drops below altitude 10° 22:50:04 10° 188° (S) 1,978 10.1 6.7°
Sets 22:53:00 0° 169° (S) 2,885 10.6 6.1°
